Regional Weather Roundup
Issued by NWS

Home | Current Version | Previous Version | Graphics & Text | Print | Product List | Glossary On
Versions: 1 2 3 4 5 6 7 8 9 10 11 12 13 14 15 16 17 18 19 20 21 22 23 24 25 26 27 28 29 30 31 32 33 34 35 36 37 38 39 40 41 42 43 44 45 46 47 48 49 50
314
ASUS43 KLOT 300108
RWRIL

ILLINOIS REGIONAL WEATHER ROUNDUP
NATIONAL WEATHER SERVICE CHICAGO/ROMEOVILLE IL
800 PM CDT FRI APR 29 2016

NOTE: "FAIR" INDICATES FEW OR NO CLOUDS BELOW 12,000 FEET WITH NO
SIGNIFICANT WEATHER AND/OR OBSTRUCTIONS TO VISIBILITY.

* THESE STATIONS ARE NOT UNDER NWS QUALITY CONTROL. THEY ALSO MAY NOT
  REPORT WEATHER SUCH AS PRECIPITATION OR FOG.

ILZ001-002-007-009-015-016-024-300200-
NORTHWEST ILLINOIS

CITY           SKY/WX    TMP DP  RH WIND       PRES   REMARKS
MOLINE         CLOUDY    50  41  71 E10       30.08S
STERLING*      CLOUDY    46  43  87 E10       30.11F
SAVANNA*       CLOUDY    48  40  75 NE5       30.11S
$$

ILZ003-004-008-010-011-017-018-300200-
NORTH CENTRAL ILLINOIS

CITY           SKY/WX    TMP DP  RH WIND       PRES   REMARKS
ROCKFORD       CLOUDY    48  39  71 E3        30.15R
FREEPORT*      CLOUDY    46  40  81 E5        30.13F
ROCHELLE*      CLOUDY    46  40  80 E5        30.12S
DE KALB*       CLOUDY    47  41  80 E6        30.13R
$$

ILZ005-006-012>014-019>023-300200-
NORTHEAST ILLINOIS

CITY           SKY/WX    TMP DP  RH WIND       PRES   REMARKS
CHICAGO-OHARE  CLOUDY    44  38  79 NE9       30.14R
CHICAGO-MIDWAY CLOUDY    45  38  76 N10       30.14R
AURORA         CLOUDY    48  42  80 N5        30.13R
LANSING*       CLOUDY    43  39  84 NE6       30.14R FOG
JOLIET*        CLOUDY    49  42  75 E10       30.13R
WAUKEGAN       CLOUDY    42  37  82 CALM      30.14R
DUPAGE AIRPORT CLOUDY    47  38  71 E12       30.12R
KANKAKEE*      CLOUDY    48  41  77 NE9       30.12R
WHEELING       CLOUDY    42  37  82 E5        30.16R
MORRIS*        CLOUDY    48  42  80 CALM      30.11R
ROMEOVILLE*    CLOUDY    46  39  76 E9        30.13R
NORTHERLY ISL    N/A     41  38  89 N9          N/A
NORTHERLY ISL    N/A     41  38  89 N9          N/A
$$

LMZ740>746-300200-
SOUTHERN LAKE MICHIGAN

STATION/POSITION SKY/WX   TEMP    WIND        PRES    VSBY  WAVE
                          AIR SEA DIR/SP/G                  HT/PER
                          (F)     (DEG/KT/KT) (MB)    (MI)  (FT/S)
SOUTHERN BUOY              40 40   20/ 10/ 10 1020.5          1/ 4
HARRISON CRIB              41     360/  9/ 10   N/A
BURNHAM HARBOR             41      20/  8/ 11   N/A
CALUMET HARBOR                                1019.9R
BURNS HARBOR               42      10/  8/ 10 1020.7
MICHIGAN CITY              42     360/  9/ 10   N/A
ST. JOSEPH                 44 47                N/A           2/ 3
$$

ILZ025>027-034>036-040-047-049-050-058-095>099-300200-
WEST-CENTRAL ILLINOIS

CITY           SKY/WX    TMP DP  RH WIND       PRES   REMARKS
QUINCY         MOCLDY    54  47  77 E9        30.01R
GALESBURG*     CLOUDY    49  43  82 NE16      30.05F
MACOMB*        CLOUDY    51  46  84 NE14      30.06F
JACKSONVILLE*  CLOUDY    55  48  77 NE13      30.01F
PITTSFIELD*    CLOUDY    56  50  81 E9        30.02S
$$

ILZ028>032-037-038-041>044-048-051>054-059>061-300200-
CENTRAL ILLINOIS

CITY           SKY/WX    TMP DP  RH WIND       PRES   REMARKS
PONTIAC        CLOUDY    52  47  83 NE7       30.12R
BLOOMINGTON    CLOUDY    53  49  86 NE10      30.09R
DECATUR        CLOUDY    57  48  72 NE13      30.05R
PEORIA         CLOUDY    51  43  74 NE15G21   30.07S
LACON*         CLOUDY    49  43  80 NE3       30.10S
LINCOLN*       CLOUDY    55  49  80 NE10      30.05S
SPRINGFIELD    CLOUDY    58  49  72 NE12      30.02S
TAYLORVILLE    CLOUDY    59  52  77 NE9       30.02S
$$

ILZ033-039-045-046-055>057-062-063-300200-
EAST-CENTRAL ILLINOIS

CITY           SKY/WX    TMP DP  RH WIND       PRES   REMARKS
CHAMPAIGN      CLOUDY    55  47  74 NE9       30.06R
RANTOUL*       PTCLDY    56  49  78 E6        30.08R
MATTOON        CLOUDY    60  49  66 NE9       30.03R
PARIS*         PTCLDY    58  51  77 NE6       30.06R
$$

ILZ079-100>102-300200-
SOUTHWEST ILLINOIS

CITY           SKY/WX    TMP DP  RH WIND       PRES   REMARKS
CAHOKIA*       CLOUDY    63  53  70 E10       29.96F
SPARTA*        CLOUDY    63  54  74 E9        29.96F
$$

ILZ064>066-069>071-074>076-080>082-084>086-088>090-092>094-300200-
SOUTH-CENTRAL ILLINOIS

CITY           SKY/WX    TMP DP  RH WIND       PRES   REMARKS
CARBONDALE     CLOUDY    63  54  72 E6        29.96S
CAIRO*         CLOUDY    60  58  92 NE6       29.93R
EFFINGHAM*     CLOUDY    63  55  76 NE3       30.04R
MARION         CLOUDY    64  57  77 NE6       29.97S
MT. VERNON     CLOUDY    63  52  67 NE6       30.00R
CENTRALIA*     CLOUDY    63  56  78 E7        29.98S
SALEM*         CLOUDY    64  53  69 CALM      30.00R
METROPOLIS*    RAIN      61  60  96 CALM      29.95S
$$

ILZ067-068-072-073-078-083-087-091-300200-
SOUTHEAST ILLINOIS

CITY           SKY/WX    TMP DP  RH WIND       PRES   REMARKS
LAWRENCEVILLE  CLOUDY    62  56  80 E5        30.02R
FLORA*         CLOUDY    64  55  71 E5        30.01R
FAIRFIELD*     CLOUDY    63  54  74 N5        29.99R
HARRISBURG*    CLOUDY    63  57  80 E3        29.98S
ROBINSON*      CLOUDY    60  54  79 E5        30.03S
CARMI*         CLOUDY    63  56  78 NE7       29.98S
$$

ABBREVIATIONS USED IN REMARKS
   TC - TEMPERATURE IN CELSIUS
  WCI - WIND CHILL INDEX
   HX - HEAT INDEX
  VSB - VISIBILITY
$$





USA.gov is the U.S. government's official web portal to all federal, state and local government web resources and services.